Wind_Speed
15 15 16 17 18 19 21 23 24 24 24 25 26 27 27 28 29 30 31 31 32 32 33 34 35 36 37 38 40 41 42 43 44 45 45 45 45 45 46 46 46 45 46 47
16 17 17 17 18 20 21 23 25 25 25 26 27 27 28 28 29 30 31 30 31 32 33 34 35 36 36 37 38 39 41 41 42 43 43 43 43 44 45 45 44 43 44 44
18 18 19 18 18 20 21 23 24 25 25 26 28 28 28 29 29 30 30 30 30 31 32 33 33 34 36 36 38 39 39 40 40 41 42 43 43 42 42 43 44 43 43 44
20 20 20 20 21 22 23 24 24 25 25 26 27 27 28 29 29 29 29 28 29 30 31 32 33 33 34 35 36 37 37 36 38 39 40 41 42 42 42 42 43 43 42 42
21 21 21 22 22 23 24 24 25 26 26 26 26 26 27 28 28 29 28 27 28 28 30 30 30 31 32 33 35 35 35 35 36 37 37 38 39 40 40 40 41 40 40 40
21 22 22 23 23 24 25 25 25 27 27 26 25 25 25 26 27 28 28 27 27 27 28 28 28 29 30 31 32 33 33 34 34 34 34 35 36 37 37 38 39 39 39 39
21 22 22 23 23 25 25 26 27 28 28 28 27 27 27 27 28 28 28 28 27 27 28 28 28 27 27 29 31 32 32 32 32 32 33 34 34 35 35 36 37 37 37 37
22 22 22 22 23 24 25 26 27 28 29 29 28 28 28 28 29 29 29 29 28 28 27 27 28 28 27 27 28 29 30 31 32 32 32 32 34 35 35 35 35 35 35 36
23 22 23 23 24 25 26 27 28 28 28 28 28 28 28 28 29 29 29 29 28 28 27 27 27 27 27 26 26 28 29 30 31 32 32 32 33 34 35 35 35 34 35 35
23 23 24 26 27 27 27 27 27 27 27 27 27 27 27 28 28 28 29 29 29 29 29 28 28 27 26 26 27 27 28 30 31 31 32 32 32 32 33 34 34 34 33 34
24 24 25 27 28 28 28 28 27 27 27 27 27 27 27 27 28 28 28 28 29 29 29 29 29 29 28 27 27 28 28 29 30 31 31 31 31 31 32 32 33 33 33 33
26 26 27 26 27 28 28 28 28 27 28 28 28 28 28 28 28 29 28 28 28 28 29 29 29 29 28 28 27 27 26 26 27 28 30 31 30 31 31 32 32 32 32 33
27 27 27 26 26 27 28 27 27 28 28 28 28 28 28 29 29 29 29 29 28 27 27 28 28 27 27 26 27 26 26 26 26 26 27 28 29 30 31 31 31 32 32 32
27 27 27 27 27 27 27 27 28 28 29 29 29 29 29 30 30 30 30 29 28 27 26 26 26 26 26 25 25 26 26 26 27 27 27 27 28 29 30 31 31 31 32 32
27 27 27 27 27 27 28 28 28 28 28 28 28 28 29 30 30 30 29 28 27 26 26 25 24 24 24 25 25 25 25 25 25 26 26 27 27 28 28 29 30 30 31 31
28 27 27 27 27 27 28 27 27 27 27 28 28 28 29 29 29 28 27 26 26 25 25 24 24 24 24 24 24 25 25 25 25 26 26 26 27 27 28 28 29 29 30 30
28 27 27 27 27 27 27 27 27 27 28 28 28 28 28 27 27 26 26 25 25 24 24 24 24 24 24 23 23 24 24 25 26 26 26 26 26 27 28 28 28 28 29 29
29 28 27 27 27 27 27 27 27 27 27 28 28 27 26 26 25 24 24 23 23 23 23 23 23 23 23 23 23 23 24 24 24 25 25 25 25 25 26 26 26 27 27 28
28 27 27 27 27 27 27 27 27 27 27 27 27 26 25 24 24 23 23 22 22 22 22 22 22 22 22 22 22 22 22 23 23 24 24 24 24 25 25 25 26 26 26 27
26 26 27 26 26 26 26 26 26 26 26 26 26 26 24 23 22 21 21 21 20 20 20 20 20 20 20 20 20 20 21 21 22 23 23 24 25 25 25 26 26 27 27 27
25 25 26 26 25 25 25 25 25 26 26 26 26 25 23 22 21 20 20 19 19 19 18 18 18 18 18 19 19 19 20 21 21 21 22 22 23 24 25 25 26 26 27 27
24 24 25 25 25 25 25 25 25 26 26 26 25 24 22 21 20 20 20 19 19 18 17 17 17 17 17 17 18 19 20 20 20 21 21 22 22 23 23 24 24 25 25 26
23 23 23 24 24 24 24 24 25 25 25 25 24 23 21 20 20 19 19 18 18 17 16 16 16 16 16 17 18 19 20 20 21 21 21 21 22 22 22 23 24 24 25 26
23 23 23 23 24 23 23 24 24 24 24 23 22 21 20 19 18 18 17 17 16 16 15 15 15 16 17 18 19 19 20 20 21 21 22 22 22 22 22 23 23 24 24 24
24 23 23 23 23 24 24 24 24 23 23 22 20 19 18 17 17 17 16 16 16 16 16 16 16 16 17 18 18 19 19 20 20 21 21 22 22 22 22 23 23 23 24 24
24 23 23 23 23 23 23 22 22 22 21 19 18 17 17 16 15 15 16 16 16 16 16 16 16 16 17 18 18 19 19 19 20 20 20 20 20 21 21 21 21 21 22 22
22 22 22 21 21 21 21 20 20 18 18 17 16 16 16 16 15 15 16 16 16 16 16 16 17 17 18 18 18 19 19 19 19 19 19 19 19 19 19 19 19 19 20 20
Wind_Direction
281 282 283 278 276 278 280 282 283 285 284 282 279 279 280 281 281 280 280 280 279 276 273 270 267 265 262 260 257 255 254 255 255 254 253 253 253 252 253 254 255 256 257 258
281 282 284 283 282 282 283 284 285 286 285 282 281 280 280 280 281 281 281 281 280 278 275 273 270 268 265 261 258 257 256 256 256 254 252 252 252 252 252 253 255 257 257 259
280 280 283 284 287 288 289 289 288 287 288 286 284 281 280 279 281 282 283 284 282 278 276 273 271 270 267 263 260 258 258 257 255 253 252 252 252 253 253 255 257 259 259 260
279 280 280 286 288 289 290 292 291 291 291 290 289 286 284 283 283 284 286 285 283 281 277 274 272 270 267 265 264 260 258 257 255 253 251 253 254 255 256 257 257 259 261 262
279 280 283 286 289 291 291 291 291 293 293 293 292 290 289 288 288 288 287 286 285 284 280 277 274 272 270 269 264 260 257 256 256 253 251 252 253 255 257 257 257 258 260 260
284 283 286 288 289 290 291 291 291 291 291 292 291 291 291 291 290 289 288 287 285 283 280 278 275 273 272 269 263 260 259 257 254 252 252 252 253 254 256 258 258 259 258 260
286 286 289 292 293 292 292 293 292 291 291 291 290 290 290 290 291 290 288 287 286 282 280 279 278 279 273 269 265 263 259 256 254 255 254 254 254 254 255 257 258 259 258 260
287 289 293 295 297 296 296 295 293 291 291 290 289 288 288 289 290 290 288 287 285 283 280 279 279 281 278 272 267 262 259 257 256 256 256 254 254 255 254 256 257 256 256 259
286 289 291 294 296 297 297 296 295 294 293 294 293 291 289 289 290 290 290 288 284 282 280 280 281 280 277 272 267 263 261 260 258 257 259 259 257 256 256 257 257 257 258 259
286 288 290 293 294 295 296 296 296 295 294 294 295 293 291 290 291 291 290 288 285 282 282 281 280 280 278 271 267 265 264 262 259 257 258 257 256 258 257 257 258 260 260 261
286 289 290 293 294 294 294 294 294 295 296 295 294 292 290 290 291 291 290 289 285 282 282 281 279 278 277 274 268 266 265 263 261 259 257 258 258 258 257 257 259 261 262 263
285 288 290 292 293 295 295 294 293 293 294 294 293 292 291 291 292 292 292 290 288 285 283 282 280 277 275 273 272 270 267 264 262 261 260 259 260 259 259 260 260 262 264 264
283 285 288 291 293 296 295 294 293 293 293 293 293 293 292 292 293 293 293 291 289 287 284 281 281 279 277 274 271 269 267 264 264 263 261 260 261 262 262 262 262 263 265 266
284 284 286 289 291 294 295 294 294 294 294 294 294 294 293 292 293 293 292 290 289 287 285 282 281 279 277 274 271 269 266 266 265 264 263 262 263 264 264 264 264 264 264 266
286 284 285 288 290 292 294 294 294 295 295 296 296 295 295 293 291 291 290 288 287 286 285 283 281 278 276 273 271 271 269 268 267 265 264 263 263 264 264 265 264 264 265 266
286 286 286 287 289 292 294 295 296 296 297 297 298 296 295 294 291 290 289 286 285 285 284 282 280 278 276 274 272 270 270 270 269 269 268 265 265 266 267 266 265 265 265 266
286 288 288 287 288 291 293 295 296 297 298 299 299 298 296 294 291 289 286 285 285 284 284 283 281 277 275 272 270 269 269 269 270 270 269 268 268 268 267 267 266 265 266 267
286 288 289 289 289 289 291 292 294 297 300 300 301 300 296 293 291 288 285 283 284 284 284 283 282 279 276 272 271 270 270 269 270 271 270 269 268 267 267 266 266 268 268 268
286 287 289 290 290 290 290 291 293 296 299 300 300 299 297 293 289 286 284 283 283 283 283 282 281 280 277 274 272 272 272 271 271 271 271 270 269 268 267 266 267 269 269 269
289 288 289 290 290 290 289 290 291 294 297 298 298 298 296 293 289 286 285 285 284 283 283 282 281 279 277 276 276 275 274 274 274 274 273 271 270 269 269 269 269 270 271 271
290 289 288 289 290 290 289 290 291 293 295 297 297 297 294 291 287 287 287 286 285 284 284 284 283 282 280 279 279 279 278 277 277 277 276 274 272 271 271 271 271 272 272 274
293 291 290 289 289 291 292 292 294 295 296 296 296 294 292 287 285 286 285 284 283 282 282 283 284 284 283 283 282 282 281 280 279 280 279 277 275 274 273 272 272 273 274 275
295 293 292 291 291 293 294 294 296 297 298 297 295 293 290 285 283 284 285 283 281 281 282 283 285 287 288 286 285 285 285 284 282 280 279 278 276 276 275 274 274 276 277 277
294 295 293 293 293 293 295 296 296 297 297 296 293 291 289 286 283 282 283 282 281 280 281 283 285 288 290 289 288 288 288 287 285 283 281 279 278 277 276 276 275 276 278 279
292 294 293 293 294 295 296 296 296 296 296 295 292 289 288 286 282 280 279 280 280 279 280 283 285 288 290 292 293 293 291 291 289 287 284 281 280 279 278 277 277 277 278 279
292 293 294 294 295 296 297 298 298 298 297 295 292 290 288 287 284 280 279 278 278 279 281 284 287 290 292 294 295 295 294 294 293 291 288 285 282 281 280 280 279 279 279 280
292 292 293 295 296 297 299 299 299 299 298 295 292 290 288 288 286 283 281 279 278 281 285 289 290 291 293 294 295 294 294 295 294 292 290 287 284 282 281 281 282 282 283 283
Height
5648 5647 5645 5645 5644 5642 5641 5639 5637 5636 5634 5633 5631 5629 5627 5625 5623 5622 5620 5618 5615 5614 5612 5610 5609 5609 5609 5610 5610 5611 5613 5615 5616 5618 5620 5622 5625 5628 5630 5632 5634 5636 5637 5639
5643 5642 5641 5640 5639 5637 5635 5633 5631 5628 5628 5625 5623 5621 5619 5617 5615 5613 5611 5609 5607 5605 5602 5601 5600 5599 5599 5600 5600 5600 5601 5603 5605 5607 5609 5611 5614 5616 5618 5620 5622 5624 5626 5627
5638 5637 5635 5635 5634 5632 5629 5627 5625 5622 5621 5618 5616 5613 5611 5609 5607 5604 5602 5600 5598 5596 5594 5592 5590 5589 5589 5590 5590 5590 5591 5593 5594 5596 5598 5600 5602 5604 5606 5609 5611 5612 5614 5616
5632 5632 5630 5632 5628 5626 5623 5621 5618 5615 5612 5610 5608 5605 5603 5600 5599 5596 5594 5591 5589 5587 5585 5583 5582 5581 5580 5580 5580 5581 5581 5583 5584 5586 5588 5590 5592 5594 5596 5598 5600 5601 5603 5604
5626 5624 5624 5624 5622 5619 5616 5614 5612 5608 5606 5603 5601 5598 5596 5593 5591 5588 5586 5583 5581 5579 5576 5575 5573 5572 5572 5572 5571 5572 5572 5573 5575 5576 5578 5580 5583 5584 5586 5588 5589 5591 5592 5593
5619 5618 5617 5618 5615 5611 5610 5608 5605 5602 5599 5596 5593 5592 5590 5586 5583 5581 5578 5576 5573 5571 5569 5567 5566 5565 5564 5563 5563 5563 5564 5565 5566 5567 5569 5571 5573 5575 5576 5578 5579 5580 5581 5582
5612 5610 5610 5610 5607 5605 5604 5602 5597 5594 5591 5588 5586 5584 5582 5579 5576 5573 5571 5568 5566 5564 5562 5560 5559 5558 5557 5556 5555 5555 5555 5556 5557 5559 5560 5562 5563 5565 5566 5568 5568 5570 5571 5571
5606 5604 5606 5602 5600 5598 5596 5592 5589 5585 5583 5580 5578 5575 5573 5570 5568 5565 5563 5560 5558 5556 5554 5552 5551 5550 5548 5547 5547 5547 5547 5548 5549 5550 5551 5552 5554 5555 5556 5557 5559 5559 5560 5561
5601 5601 5598 5595 5592 5590 5587 5584 5581 5578 5575 5572 5570 5567 5565 5562 5560 5557 5555 5552 5550 5548 5546 5545 5543 5542 5540 5539 5539 5539 5539 5539 5540 5541 5542 5543 5545 5546 5547 5548 5549 5549 5551 5552
5593 5592 5590 5587 5584 5582 5579 5576 5573 5570 5567 5565 5562 5559 5557 5555 5552 5549 5547 5544 5542 5540 5538 5536 5535 5533 5532 5531 5531 5530 5530 5531 5531 5532 5533 5534 5535 5536 5537 5538 5539 5540 5541 5542
5585 5584 5581 5579 5576 5573 5570 5567 5565 5562 5560 5557 5554 5552 5549 5547 5544 5541 5539 5536 5533 5531 5529 5528 5526 5525 5524 5523 5523 5522 5522 5522 5522 5523 5524 5525 5526 5527 5528 5529 5530 5531 5532 5532
5578 5576 5573 5571 5568 5565 5562 5559 5557 5554 5552 5549 5546 5544 5541 5539 5536 5533 5530 5528 5525 5523 5521 5519 5518 5517 5516 5515 5514 5514 5513 5513 5514 5514 5515 5517 5517 5518 5518 5519 5520 5521 5522 5522
5568 5566 5563 5561 5559 5556 5553 5551 5549 5546 5544 5541 5538 5535 5533 5530 5528 5525 5522 5519 5517 5515 5513 5511 5510 5508 5507 5506 5506 5506 5506 5506 5506 5506 5507 5508 5508 5509 5510 5510 5511 5512 5512 5513
5558 5556 5554 5552 5550 5548 5545 5543 5540 5538 5535 5533 5530 5527 5524 5521 5519 5516 5514 5511 5509 5507 5505 5504 5502 5501 5499 5499 5498 5498 5498 5498 5498 5498 5498 5499 5499 5500 5500 5501 5502 5502 5503 5504
5549 5547 5545 5543 5542 5539 5537 5534 5532 5530 5527 5524 5521 5518 5515 5513 5510 5507 5505 5503 5501 5499 5497 5496 5494 5493 5492 5491 5491 5490 5490 5490 5490 5490 5490 5490 5490 5491 5491 5492 5493 5493 5494 5494
5540 5538 5536 5535 5533 5531 5529 5526 5524 5522 5519 5516 5513 5510 5507 5504 5501 5498 5496 5494 5493 5491 5489 5488 5487 5486 5485 5484 5483 5483 5482 5482 5482 5482 5481 5481 5481 5482 5482 5483 5484 5484 5485 5485
5531 5530 5528 5526 5525 5523 5521 5518 5516 5513 5510 5507 5504 5501 5498 5495 5492 5490 5488 5486 5484 5483 5481 5480 5479 5478 5477 5476 5475 5475 5475 5474 5474 5473 5473 5473 5473 5473 5474 5474 5475 5475 5476 5476
5522 5521 5519 5518 5516 5514 5512 5510 5507 5505 5502 5499 5495 5492 5489 5487 5484 5482 5480 5478 5477 5475 5474 5472 5471 5470 5469 5469 5468 5467 5467 5466 5466 5466 5465 5465 5465 5465 5465 5466 5466 5467 5467 5467
5513 5512 5511 5509 5507 5505 5503 5501 5499 5496 5493 5490 5487 5484 5481 5479 5476 5474 5473 5471 5470 5468 5467 5465 5464 5463 5462 5461 5461 5460 5459 5459 5458 5458 5458 5457 5457 5457 5458 5458 5458 5458 5458 5458
5505 5504 5502 5500 5498 5496 5494 5492 5490 5488 5485 5482 5479 5476 5474 5471 5469 5467 5466 5464 5463 5462 5460 5459 5458 5457 5456 5455 5454 5453 5452 5452 5451 5451 5450 5450 5450 5450 5450 5450 5450 5450 5450 5449
5497 5495 5494 5492 5490 5488 5486 5484 5481 5479 5476 5474 5471 5469 5466 5464 5462 5461 5459 5458 5457 5455 5454 5453 5452 5451 5450 5449 5448 5447 5447 5446 5445 5444 5443 5443 5443 5442 5442 5442 5442 5442 5441 5441
5489 5487 5485 5483 5482 5480 5477 5475 5473 5471 5468 5466 5463 5461 5459 5457 5455 5454 5453 5452 5451 5449 5448 5447 5446 5445 5444 5443 5443 5441 5440 5439 5438 5438 5437 5436 5436 5435 5435 5434 5434 5434 5433 5433
5481 5479 5477 5476 5474 5472 5469 5467 5465 5463 5460 5458 5455 5453 5451 5450 5449 5448 5447 5446 5444 5443 5443 5442 5441 5440 5439 5438 5437 5436 5434 5433 5432 5431 5430 5429 5428 5428 5427 5427 5427 5426 5425 5425
5474 5472 5470 5468 5466 5464 5462 5459 5457 5455 5452 5450 5448 5446 5445 5443 5442 5441 5440 5440 5439 5438 5437 5436 5435 5434 5433 5432 5431 5430 5428 5427 5425 5424 5423 5422 5421 5420 5420 5419 5419 5418 5417 5416
5466 5464 5462 5460 5458 5456 5454 5451 5449 5447 5444 5442 5441 5439 5438 5437 5437 5436 5435 5434 5433 5433 5432 5431 5430 5429 5428 5427 5425 5424 5422 5420 5419 5417 5416 5415 5414 5413 5412 5412 5411 5410 5409 5409
5458 5456 5454 5453 5451 5449 5446 5444 5441 5439 5437 5436 5435 5434 5433 5432 5431 5430 5429 5429 5428 5427 5426 5426 5425 5424 5422 5421 5419 5418 5416 5414 5413 5411 5410 5408 5407 5406 5405 5405 5404 5403 5402 5401
5451 5449 5447 5445 5444 5442 5440 5438 5435 5433 5432 5430 5429 5428 5428 5427 5426 5425 5424 5423 5423 5422 5421 5420 5419 5418 5417 5415 5414 5412 5411 5409 5407 5405 5404 5403 5401 5400 5399 5398 5398 5397 5396 5395